Regional Weather Roundup
Issued by NWS Newport/Morehead, NC

Current Version | Previous Version | Text Only | Print | Product List | Glossary On
Versions: 1 2 3 4 5 6 7 8 9 10 11 12 13 14 15 16 17 18 19 20 21 22 23 24 25 26 27 28 29 30 31 32 33 34 35 36 37 38 39 40 41 42 43 44 45 46 47 48 49 50
000
ASUS42 KMHX 171713
RWRMHX
WEATHER ROUNDUP FOR EASTERN NORTH CAROLINA
NATIONAL WEATHER SERVICE NEWPORT/MOREHEAD CITY NC
1200 PM EST SUN DEC 17 2017

NOTE: "FAIR" INDICATES FEW OR NO CLOUDS BELOW 12,000 FEET
WITH NO SIGNIFICANT WEATHER AND/OR OBSTRUCTIONS TO VISIBILITY

NCZ015>017-031-032-045>047-102-103-171800-
NORTH COAST

CITY           SKY/WX    TMP DP  RH WIND       PRES   REMARKS
EDENTON        MOSUNNY   50  32  49 CALM      30.28F
ELIZABETH CITY CLOUDY    48  37  65 CALM      30.27F
KITTY HAWK     CLOUDY    50  31  47 CALM      30.26S
MANTEO         CLOUDY    46  33  59 SW3       30.28R

$$

NCZ045>047-081-094-103-104-171800-
CENTRAL COAST

CITY           SKY/WX    TMP DP  RH WIND       PRES   REMARKS
FRISCO         SUNNY     54  36  50 VRB3      30.27F

$$

NCZ095-097-098-100-101-171800-
SOUTHERN COAST

CITY           SKY/WX    TMP DP  RH WIND       PRES   REMARKS
BEAUFORT       MOSUNNY   52  36  54 SW7       30.28F
CEDAR ISLAND   NOT AVBL
JACKSONVILLE   MOSUNNY   53  37  54 E5        30.28F
PINEY ISLAND     N/A    N/A N/A N/A S8        30.28F
WILMINGTON     SUNNY     57  35  43 SW6       30.29F


$$

NCZ011>013-027>030-043-044-078>080-089-090>093-098-171800-
COASTAL PLAIN

CITY           SKY/WX    TMP DP  RH WIND       PRES   REMARKS
AHOSKIE        CLOUDY    45  31  57 CALM      30.26F
CLINTON        SUNNY     53  33  48 SW5       30.29F
ELIZABETHTOWN  NOT AVBL
GOLDSBORO      PTSUNNY   52  30  44 SW8       30.27F
GREENVILLE     PTSUNNY   50  30  46 SW5       30.28S
HAVELOCK       NOT AVBL
KENANSVILLE    CLOUDY    52  32  46 SW5       30.30F
KINSTON        PTSUNNY   52  32  46 SW8       30.29F
NEW BERN       CLOUDY    53  33  46 S6        30.29F
RICHLANDS      MOSUNNY   53  32  44 S7        30.29F
ROCKY MOUNT    CLOUDY    48  33  56 SW7       30.29S
WASHINGTON     SUNNY     52  30  42 SW6       30.28S
WHITEVILLE     SUNNY     54  33  45 CALM      30.28F

$$

AMZ130-135-150-152-154-156-158-170-250-252-270-ANZ085-086-088-633-658-670-171800-
MARINE OBSERVATIONS

STATION/POSITION TIME  TEMP    WIND        PRES    WAVE   SWELL
                       AIR SEA DIR/SP/G            HT/PER HT/PER
                 (UTC) (F)     (DEG/KT/KT) (MB)    (FT/S) (FT/S)
CHESAPEAKE LIGHT NOT AVBL
64 E VA BEACH    1650   52 60  220/  6/ 10 1025.2    2/ 3   2/ 9
DUCK             1648   47 52  200/  4/  5 1024.0
2 E DUCK         1700      54                N/A     1/10
OREGON INLET     1636   45 44  190/  6/  7 1025.2
13E OREGON INLT  1648      60                N/A     1/ 7   2/ 7
HATTERAS CG      1648   52 53  190/  2/  4 1024.7
DIAMOND BUOY     1650   55 72  220/  6/ 10 1025.4    2/10   2/10
CAPE LOOKOUT     1700          170/  5/  6 1025.6
BEAUFORT LAB     1648   51 50  210/  4/  8 1025.6
30 SE NEW RVR IN 1608   55 63  140/  2/  6 1026.4
30 SE NEW RVR IN 1700      63                N/A     2/ 8
27 SE WRIGHTSVLE 1608   55 62  160/  2/  4 1026.3
5 SE WRIGHTSVLE  1608   53 56  180/  2/  4 1026.5
225 S CAPE HAT   1650   65 74   CALM  /  2 1026.1    3/10   3/10
41 SE CHARLESTON 1700   61 72   70/  2/  4 1025.0

$$




USA.gov is the U.S. government's official web portal to all federal, state and local government web resources and services.